Regional Weather Roundup
Issued by NWS

Home | Current Version | Previous Version | Graphics & Text | Print | Product List | Glossary On
Versions: 1 2 3 4 5 6 7 8 9 10 11 12 13 14 15 16 17 18 19 20 21 22 23 24 25 26 27 28 29 30 31 32 33 34 35 36 37 38 39 40 41 42 43 44 45 46 47 48 49 50
000
ASUS43 KIND 281659
RWRIN

WEATHER ROUNDUP FOR INDIANA
NATIONAL WEATHER SERVICE INDIANAPOLIS IN
100 PM EDT FRI AUG 28 2015

NOTE: "FAIR" INDICATES FEW OR NO CLOUDS BELOW 12,000 FEET WITH NO
SIGNIFICANT WEATHER AND/OR OBSTRUCTIONS TO VISIBILITY.

* - STATION DOES NOT REPORT WEATHER SUCH AS PRECIPITATION OR FOG.

+ - STATION NOT QUALITY CONTROLLED BY THE NATIONAL WEATHER SERVICE.
    USE DATA WITH CAUTION...ESPECIALLY DEWPOINT AND RELATIVE
    HUMIDITY OBSERVATIONS.

INZ001>003-010>013-019-020-281800-
NORTHWEST INDIANA

CITY           SKY/WX    TMP DP  RH WIND       PRES   REMARKS
GARY /AIRPORT/ CLOUDY    73  59  60 S5        30.15F
KNOX *+        PTSUNNY   73  59  60 S7        30.16F
MONTICELLO +   PTSUNNY   75  61  61 S8        30.17F

$$

LMZ046-743>745-281800-
SOUTHERN LAKE MICHIGAN

STATION/POSITION TIME  TEMP    WIND        PRES    WAVE
                       AIR SEA DIR/SP/G            HT
                 (UTC) (F)     (DEG/KT/KT) (MB)    (FT)
BURNS HARBOR     1600   72     190/  9/ 11 1021.3F
MICHIGAN CITY    1600   70     170/  5/  7   N/A
5NW MICH CITY    1600   70 70  200/  4/  6   N/A     1

$$

INZ004-005-014>016-021>024-281800-
NORTH CENTRAL INDIANA

CITY           SKY/WX    TMP DP  RH WIND       PRES   REMARKS
ELKHART        SUNNY     73  59  60 SW3       30.18F
GOSHEN         PTSUNNY   75  60  59 S8        30.18F
SOUTH BEND     PTSUNNY   74  60  61 SW8       30.17F
WARSAW +       PTSUNNY   73  59  60 SW6       30.19S

$$

INZ006>009-017-018-025>027-281800-
NORTHEAST INDIANA

CITY           SKY/WX    TMP DP  RH WIND       PRES   REMARKS
ANGOLA *+      SUNNY     75  64  69 SW7       30.19F
FORT WAYNE     PTSUNNY   75  58  55 S6        30.20F

$$

INZ028-029-035-036-043>045-051>053-281800-
WEST CENTRAL INDIANA

CITY           SKY/WX    TMP DP  RH WIND       PRES   REMARKS
CRAWFORDSVL +  PTSUNNY   73  52  48 S6        30.18F
GREENCASTLE +  CLOUDY    73  52  46 SE5       30.19F
LAFAYETTE      PTSUNNY   75  57  53 S7        30.17F
TERRE HAUTE    PTSUNNY   77  56  48 S7        30.18S

$$

INZ030>032-037>040-046>048-054>057-064-065-281800-
CENTRAL INDIANA

CITY           SKY/WX    TMP DP  RH WIND       PRES   REMARKS
ANDERSON       MOSUNNY   77  50  38 CALM      30.21S
COLUMBUS       SUNNY     75  48  38 SE6       30.20S
FRANKFORT +    PTSUNNY   76  60  57 CALM      30.21S
GREENWOOD *+   MOSUNNY   75  52  43 SE5       30.20S
INDIANAPOLIS   PTSUNNY   76  54  46 SE6       30.18R
-EAGLE CREEK   MOSUNNY   75  55  49 MISG      30.18S
KOKOMO *+      PTSUNNY   75  59  57 S6        30.19F
MT COMFORT *+  MOSUNNY   77  45  31 E8        30.20S
SHELBYVILLE    SUNNY     78  56  46 VRB6      30.19S

$$

INZ033-034-041-042-049-050-058-059-281800-
EAST CENTRAL INDIANA

CITY           SKY/WX    TMP DP  RH WIND       PRES   REMARKS
MUNCIE         MOSUNNY   74  56  53 CALM      30.20S

$$

INZ060-061-067>069-081>083-085>088-281800-
SOUTHWEST INDIANA

CITY           SKY/WX    TMP DP  RH WIND       PRES   REMARKS
EVANSVILLE     MOSUNNY   78  57  48 E9        30.15F
HUNTINGBURG *+ MOSUNNY   75  57  53 SE6       30.17S

$$

INZ062-063-066-070>080-084-089>092-281800-
SOUTH CENTRAL AND SOUTHEAST INDIANA

CITY           SKY/WX    TMP DP  RH WIND       PRES   REMARKS
BLOOMINGTON    PTSUNNY   75  55  49 SE7       30.20R
MADISON *+     SUNNY     77  55  47 E6        30.20F
SEYMOUR +      SUNNY     79  57  47 SE5       30.19S

$$




USA.gov is the U.S. government's official web portal to all federal, state and local government web resources and services.